KAL017 RKSI-EGLL

Flight info

Callsign KAL017
Flight time N/A
Altitude 30000
Route NOPIK Y697 AGAVO/K0830S0660 A591 IKEKA W4 FZ/K0933S0920 W4 HCH W200 DOVIV W55 PAMRU W34 LADIX B339 ASILA A575 UPREK W28 ISBOS/K0920S0980 W28 LAGEB W66 NUKTI B215 FKG A368 SARIN/K0913F320 N161 BURID/K0900F340 N161 GASBI/N0493F340 N161 LEKBA DCT LEYLA T916 MATAL M11 TABAS/N0493F360 M11 REBLO UM11 CRM UL746 ODERO L746 LUGEB DCT BUDOP DCT BEGLA DCT DEXIT DCT INBED DCT BOMBI DCT ADKUV DCT SOGRI DCT DENUT L608 LOGAN
Aircraft B77W/H-SDE1E2E3FGHIJ2J3J4J5M1RWXY/LB1D1

Departure

Time 2026-05-06 15:48
Airport Incheon International Airport (RKSI)

Arrival

Time N/A
Airport London Heathrow Airport (EGLL)
Time Latitude Longitude Altitude Speed Heading
2026-05-06 15:22 37.46393 126.43161 37 ft 0 kts 70°
2026-05-06 15:40 37.46392 126.43158 37 ft 2 kts 70°
2026-05-06 15:40 37.46386 126.43138 37 ft 2 kts 68°
2026-05-06 15:40 37.46379 126.43120 36 ft 2 kts 65°
2026-05-06 15:41 37.46372 126.43101 35 ft 2 kts 60°
2026-05-06 15:41 37.46363 126.43084 36 ft 2 kts 52°
2026-05-06 15:41 37.46352 126.43068 36 ft 2 kts 34°
2026-05-06 15:41 37.46337 126.43061 59 ft 2 kts 355°
2026-05-06 15:42 37.46326 126.43064 29 ft 1 kts 338°
2026-05-06 15:42 37.46325 126.43064 31 ft 0 kts 338°
2026-05-06 15:42 37.46342 126.43050 47 ft 10 kts 321°
2026-05-06 15:43 37.46331 126.42956 34 ft 12 kts 241°
2026-05-06 15:43 37.46310 126.42858 37 ft 12 kts 289°
2026-05-06 15:43 37.46371 126.42786 37 ft 12 kts 324°
2026-05-06 15:43 37.46443 126.42722 37 ft 14 kts 324°
2026-05-06 15:44 37.46526 126.42649 37 ft 16 kts 324°
2026-05-06 15:44 37.46651 126.42538 37 ft 31 kts 324°
2026-05-06 15:44 37.46837 126.42371 37 ft 32 kts 324°
2026-05-06 15:44 37.47012 126.42215 37 ft 30 kts 325°
2026-05-06 15:45 37.47183 126.42065 37 ft 30 kts 325°
2026-05-06 15:45 37.47326 126.41935 37 ft 22 kts 324°
2026-05-06 15:45 37.47391 126.41794 38 ft 21 kts 242°
2026-05-06 15:45 37.47305 126.41643 38 ft 21 kts 233°
2026-05-06 15:46 37.47193 126.41636 38 ft 0 kts 143°
2026-05-06 15:47 37.47192 126.41637 38 ft 2 kts 143°
2026-05-06 15:47 37.47072 126.41750 38 ft 54 kts 143°
2026-05-06 15:47 37.46565 126.42202 38 ft 124 kts 146°
2026-05-06 15:47 37.45687 126.42981 38 ft 183 kts 144°
2026-05-06 15:48 37.44601 126.43956 370 ft 193 kts 143°
2026-05-06 15:48 37.43510 126.44969 867 ft 200 kts 145°
2026-05-06 15:48 37.42342 126.45945 1351 ft 203 kts 157°
2026-05-06 15:48 37.41085 126.46786 1858 ft 208 kts 158°
2026-05-06 15:49 37.39746 126.47699 2033 ft 229 kts 157°
2026-05-06 15:49 37.38298 126.48572 2397 ft 233 kts 169°
2026-05-06 15:49 37.36673 126.49084 2706 ft 248 kts 170°
2026-05-06 15:49 37.34973 126.49647 3244 ft 257 kts 169°
2026-05-06 15:50 37.33227 126.50241 3839 ft 263 kts 169°
2026-05-06 15:50 37.31441 126.50848 4441 ft 268 kts 168°
2026-05-06 15:50 37.29624 126.51433 5031 ft 269 kts 175°
2026-05-06 15:50 37.27792 126.51264 5472 ft 267 kts 205°
2026-05-06 15:51 37.26224 126.50029 6014 ft 268 kts 223°
2026-05-06 15:51 37.24850 126.48431 6620 ft 270 kts 225°
2026-05-06 15:51 37.23476 126.46803 7227 ft 273 kts 225°
2026-05-06 15:51 37.22082 126.45149 7818 ft 277 kts 225°
2026-05-06 15:52 37.20696 126.43505 8420 ft 279 kts 225°
2026-05-06 15:52 37.19274 126.41824 9044 ft 281 kts 225°
2026-05-06 15:52 37.17844 126.40138 9634 ft 284 kts 225°
2026-05-06 15:52 37.16396 126.38434 9992 ft 287 kts 225°
2026-05-06 15:53 37.14928 126.36712 9958 ft 288 kts 225°
2026-05-06 15:53 37.13465 126.35001 9966 ft 287 kts 225°
2026-05-06 15:53 37.12010 126.33298 9963 ft 285 kts 225°
2026-05-06 15:53 37.10832 126.31363 9963 ft 279 kts 249°
2026-05-06 15:54 37.10385 126.28996 10223 ft 286 kts 265°
2026-05-06 15:54 37.10332 126.26419 10355 ft 305 kts 269°
2026-05-06 15:54 37.10332 126.23681 10506 ft 324 kts 269°
2026-05-06 15:54 37.10331 126.20774 10655 ft 343 kts 269°
2026-05-06 15:55 37.10325 126.18771 10849 ft 352 kts 269°
2026-05-06 15:55 37.10304 126.15656 11305 ft 361 kts 269°
2026-05-06 15:55 37.10275 126.12482 11884 ft 366 kts 268°
2026-05-06 15:55 37.10423 126.09313 12428 ft 369 kts 281°
2026-05-06 15:56 37.11348 126.06301 12890 ft 373 kts 294°
2026-05-06 15:56 37.12467 126.03335 13343 ft 380 kts 292°
2026-05-06 15:56 37.13536 126.00297 13976 ft 382 kts 291°
2026-05-06 15:56 37.14588 125.97235 14612 ft 382 kts 291°
2026-05-06 15:57 37.15636 125.94174 15273 ft 382 kts 290°
2026-05-06 15:57 37.16684 125.91111 15904 ft 383 kts 290°
2026-05-06 15:57 37.17742 125.88025 16520 ft 385 kts 290°
2026-05-06 15:57 37.18802 125.84931 17120 ft 387 kts 290°
2026-05-06 15:58 37.19866 125.81825 17718 ft 388 kts 290°
2026-05-06 15:58 37.20934 125.78705 18325 ft 390 kts 290°
2026-05-06 15:58 37.22008 125.75560 18807 ft 392 kts 290°
2026-05-06 15:58 37.23086 125.72405 19285 ft 395 kts 289°
2026-05-06 15:59 37.24171 125.69219 19778 ft 397 kts 289°
2026-05-06 15:59 37.25256 125.66033 20330 ft 397 kts 289°
2026-05-06 15:59 37.26345 125.62834 20867 ft 398 kts 289°
2026-05-06 15:59 37.27432 125.59636 21380 ft 400 kts 289°
2026-05-06 16:00 37.28524 125.56418 21869 ft 401 kts 289°
2026-05-06 16:00 37.29621 125.53185 22367 ft 403 kts 289°
2026-05-06 16:00 37.30722 125.49933 22853 ft 405 kts 289°
2026-05-06 16:00 37.31824 125.46676 23307 ft 407 kts 289°
2026-05-06 16:01 37.32934 125.43392 23730 ft 409 kts 289°
2026-05-06 16:01 37.34048 125.40092 24087 ft 412 kts 289°
2026-05-06 16:01 37.35171 125.36764 24425 ft 415 kts 289°
2026-05-06 16:01 37.36285 125.33458 24737 ft 417 kts 289°
2026-05-06 16:02 37.37419 125.30090 25072 ft 420 kts 289°
2026-05-06 16:02 37.38562 125.26690 25413 ft 423 kts 289°
2026-05-06 16:02 37.39537 125.23218 25681 ft 420 kts 278°
2026-05-06 16:02 37.39783 125.19575 25932 ft 416 kts 265°
2026-05-06 16:03 37.39636 125.15934 26196 ft 419 kts 266°
2026-05-06 16:03 37.39528 125.12250 26493 ft 422 kts 266°
2026-05-06 16:03 37.39448 125.08553 26829 ft 424 kts 267°
2026-05-06 16:03 37.39381 125.04839 27164 ft 426 kts 267°
2026-05-06 16:04 37.39317 125.01107 27401 ft 429 kts 267°
2026-05-06 16:04 37.39252 124.97339 27670 ft 431 kts 267°
2026-05-06 16:04 37.39186 124.93569 28094 ft 430 kts 267°
2026-05-06 16:04 37.39119 124.89851 28388 ft 432 kts 267°
2026-05-06 16:05 37.39047 124.86064 28609 ft 435 kts 267°
2026-05-06 16:05 37.38975 124.82321 28814 ft 437 kts 267°
2026-05-06 16:05 37.38897 124.78481 29065 ft 439 kts 267°
2026-05-06 16:05 37.38818 124.74639 29324 ft 441 kts 267°
2026-05-06 16:06 37.38737 124.70780 29655 ft 440 kts 267°
2026-05-06 16:06 37.38656 124.66938 29913 ft 441 kts 268°
2026-05-06 16:06 37.38491 124.59203 29950 ft 444 kts 268°
2026-05-06 16:07 37.38321 124.51467 29944 ft 441 kts 267°
2026-05-06 16:07 37.37699 124.44298 29938 ft 438 kts 256°
2026-05-06 16:08 37.35650 124.37080 29950 ft 440 kts 247°
2026-05-06 16:08 37.32458 124.30483 29951 ft 443 kts 240°
2026-05-06 16:09 37.29106 124.23976 29950 ft 444 kts 240°
2026-05-06 16:09 37.25785 124.17423 29920 ft 445 kts 240°
2026-05-06 16:10 37.22450 124.10872 29932 ft 447 kts 240°